星链-30089 (STARLINK-30089 )

导读

STARLINK-30089是美国太空探索技术公司星链星座的组网卫星,于2023年4月19日发射入轨,属于星链互联网卫星项目的组成部分。星链旨在构建全球卫星互联网通信系统,该卫星承担着为全球偏远地区等提供低延迟宽带网络服务的任务,依托低轨布局实现覆盖补网,支撑星座整体通信能力的扩容。

基本信息
目录编号:
56296
目录名称:
STARLINK-30089
国际标识:
2023-056L
轨道中心:
EARTH
卫星名称:
星链-30089
卫星全名:
星链-30089 (STARLINK-30089 )
卫星状态:
在轨 (已飞行1156 天)
发射日期:
2023-04-19 UTC
国别 :
美国 (US)
星等 :
--
轨道信息
数据来源 国际轨道数据
星历时间: 2026-06-17T01:30:56+0800
1天前
查看轨道信息
半长轴: 6861.2km
偏心率: 0.0000759
轨道倾角: 42.989°
近地点辐角 244.382°
升交点赤经 329.803°
平近点角 115.695°
近地点: 482.542km
远地点: 483.584km
周期: 94.267分钟
每日圈数: 15.275755
详细信息
固有亮度:
5
最大亮度:
0.3
卫星平台:
Starlink v2.0 mini
覆盖范围:
全球
运营商:
太空探索技术公司
运营商所在国:
美国
制造商(研发单位):
太空探索技术公司
制造商所在国:
美国
使用方式:
暂无
卫星简介
星链(Starlink)计划是由太空探索技术公司(SpaceX)提出的一个巨型低轨卫星互联网星座项目,计划在2019年至2024年间在太空搭建由约1.2万颗卫星组成的“星链”网络,其中1584颗将部署在地球上空550千米处的近地轨道,并从2020年开始工作。该卫星仍在工作。
2D轨道图
3D轨道图
轨道高度分析图
轨道倾角分析图
轨道综合分析图
查看轨道综合分析图